Regional Weather Roundup
Issued by NWS

Home | Current Version | Previous Version | Text Only | Print | Product List | Glossary On
Versions: 1 2 3 4 5 6 7 8 9 10 11 12 13 14 15 16 17 18 19 20 21 22 23 24 25 26 27 28 29 30 31 32 33 34 35 36 37 38 39 40 41 42 43 44 45 46 47 48 49 50
000
ASUS46 KSEW 212210
RWRWA

WASHINGTON REGIONAL WEATHER ROUNDUP
NATIONAL WEATHER SERVICE SEATTLE WA
300 PM PDT SAT APR 21 2018

NOTE:"FAIR" INDICATES FEW OR NO CLOUDS BELOW 12,000 FEET WITH NO
SIGNIFICANT WEATHER AND/OR OBSTRUCTIONS TO VISIBILITY.

WAZ507-509-555>559-212300-
SEATTLE, TACOMA, EVERETT, AND VICINITY

CITY           SKY/WX    TMP DP  RH WIND       PRES   REMARKS
EVERETT        CLOUDY    52  38  58 NW7       30.41R
BOEING FIELD   LGT RAIN  50  39  66 N3        30.42R
RENTON         CLOUDY    55  32  41 NW8       30.41R
SEATAC AIRPORT CLOUDY    51  39  63 N12       30.41R
JBLM-MCCHORD   PTSUNNY   57  38  50 W12G17    30.40R
PUYALLUP       PTSUNNY   57  34  41 VRB7      30.40S
BREMERTON      LGT RAIN  49  42  77 NE8       30.40R
JBLM-FT LEWIS  PTSUNNY   57  38  49 W16       30.39S
TACOMA NARROWS CLOUDY    56  34  43 SW12      30.39S
$$

WAZ001-503-506-510-514-515-212300-
NORTH INTERIOR

CITY           SKY/WX    TMP DP  RH WIND       PRES   REMARKS
BELLINGHAM     MOSUNNY   55  38  52 S8        30.38S
FRIDAY HARBOR  MOSUNNY   54  36  50 SW14G25   30.40R
EASTSOUND      PTSUNNY   55  36  47 VRB7      30.38R
PORT ANGELES   CLOUDY    50  41  71 NW14G22   30.42R
EDIZ HOOK      FAIR      50  41  71 NW15      30.42S
PORT TOWNSEND  CLOUDY    52  39  62 W13       30.43R
NAS WHIDBEY    PTSUNNY   54  41  61 SW10      30.46R
ARLINGTON      CLOUDY    55  37  50 N7        30.41S
BURLINGTON     SUNNY     55  37  50 W8G14     30.40R
$$

WAZ020-022-039-040-504-511-512-212300-
SOUTHWEST INTERIOR

CITY           SKY/WX    TMP DP  RH WIND       PRES   REMARKS
SHELTON        CLOUDY    56  37  49 SW13      30.40R
OLYMPIA        CLOUDY    56  33  42 W14       30.41R
CHEHALIS       FAIR      59  36  41 W9        30.42R
KELSO          MOSUNNY   58  37  45 W8        30.42S
VANCOUVER      SUNNY     60  35  39 VRB7G16   30.40F
SCAPPOOSE, OR  MOSUNNY   57  36  45 NE9       30.39F
PORTLAND, OR   MOSUNNY   61  32  33 NW9       30.40F
$$

WAZ021-516-517-212300-
WASHINGTON COAST

CITY           SKY/WX    TMP DP  RH WIND       PRES   REMARKS
FORKS          CLOUDY    51  38  60 SW14      30.45R
HOQUIAM        CLOUDY    51  42  71 W13       30.45S
ASTORIA, OR    PTSUNNY   55  40  56 W13       30.45S
$$

WAZ019-023-024-040-567>569-212300-
CASCADE MOUNTAINS AND COLUMBIA GORGE

CITY           SKY/WX    TMP DP  RH WIND       PRES   REMARKS
STAMPEDE PASS  NOT AVBL
TROUTDALE, OR  SUNNY     60  32  34 VRB6      30.40F
HOOD RIVER, OR CLEAR     61  32  33 W5        30.35S
THE DALLES, OR SUNNY     65  29  25 W22G28    30.32F
$$

WAZ026-027-041>044-520-521-212300-
EAST SLOPES

CITY           SKY/WX    TMP DP  RH WIND       PRES   REMARKS
OMAK           SUNNY     60  18  19 W17G28    30.16R
WENATCHEE      CLOUDY    57  20  23 NW17G25   30.26R
ELLENSBURG     SUNNY     55  26  32 NW23G31   30.31S
YAKIMA         PTSUNNY   61  24  24 N10G17    30.28R
SUNNYSIDE ARPT CLEAR     62  25  24 SW12G18   30.27S
YAKIMA TC      MOCLDY    58  20  23 N18G24    30.27R
$$

WAZ028-034-035-212300-
COLUMBIA BASIN

CITY           SKY/WX    TMP DP  RH WIND       PRES   REMARKS
EPHRATA        PTSUNNY   61  21  21 W13       30.24S
MOSES LAKE     MOSUNNY   63  18  17 W12       30.24S
PASCO          SUNNY     67  22  18 W20       30.26F
RICHLAND ARPT  CLEAR     68  25  19 W14       30.26F
HERMISTON, OR  SUNNY     65  22  19 W14G24    30.27F
$$

WAZ036>038-212300-
NORTHEAST WASHINGTON

CITY           SKY/WX    TMP DP  RH WIND       PRES   REMARKS
SPOKANE GEIGER MOSUNNY   57  24  28 SW23G30   30.20R
SPOKANE FELTS  MOSUNNY   59  25  27 W18G29    30.19F
FAIRCHILD AFB  MOSUNNY   56  28  34 SW17      30.19S
COEURDALENE,ID SUNNY     56  27  32 SW20      30.18S
DEER PARK      MOSUNNY   58  22  24 SW20G32   30.17R
$$

WAZ029>033-212300-
SOUTHEAST WASHINGTON

CITY           SKY/WX    TMP DP  RH WIND       PRES   REMARKS
PULLMAN        PTSUNNY   54  28  36 SW13G30   30.26S
LEWISTON, ID   SUNNY     62  27  26 NW20G32   30.22S
WALLA WALLA    SUNNY     61  27  27 W8G22     30.28S
PENDLETON, OR  SUNNY     62  14  15 W18G25    30.28F
$$



USA.gov is the U.S. government's official web portal to all federal, state and local government web resources and services.